Regional Weather Roundup
Issued by NWS

Home | Current Version | Previous Version | Graphics & Text | Print | Product List | Glossary On
Versions: 1 2 3 4 5 6 7 8 9 10 11 12 13 14 15 16 17 18 19 20 21 22 23 24 25 26 27 28 29 30 31 32 33 34 35 36 37 38 39 40 41 42 43 44 45 46 47 48 49 50
000
ASUS43 KLSX 290007
RWRMO

WEATHER SUMMARY FOR MISSOURI
NATIONAL WEATHER SERVICE SPRINGFIELD MO
700 PM CDT THU MAY 28 2015

NOTE: "FAIR" INDICATES FEW OR NO CLOUDS BELOW 12,000 FEET WITH NO
       SIGNIFICANT WEATHER AND/OR OBSTRUCTIONS TO VISIBILITY.
       CURRENT SKY AND/OR WEATHER CONDITIONS ARE NOT AVAILABLE FOR
       CHILLICOTHE AND FARMINGTON.

MOZ001>031-035>038-043-044-053-054-290100-
...NORTHERN AND WESTERN MISSOURI...

CITY           SKY/WX    TMP DP  RH WIND       PRES   REMARKS
KANSAS CTY INT CLOUDY    71  65  81 SE10      29.97S
6HR MIN TEMP:  67; 6HR MAX TEMP:  72; 6HR PCP: TRACE;

KANSAS C DTWN  CLOUDY    73  61  65 SE5       29.96F
6HR MIN TEMP:  69; 6HR MAX TEMP:  73; 6HR PCP:  0.07;

LEE`S SUMMIT   CLOUDY    71  61  70 SE5       29.98F
6HR MIN TEMP:  68; 6HR MAX TEMP:  73; 6HR PCP:  0.16;

ST JOSEPH      CLOUDY    73  64  73 S10       29.96S
6HR MIN TEMP:  69; 6HR MAX TEMP:  74;

CHILLICOTHE      N/A     71  65  81 VRB3      29.99F
6HR MIN TEMP:  71; 6HR MAX TEMP:  78;

KIRKSVILLE     LGT RAIN  66  65  96 E8        30.05F
6HR MIN TEMP:  65; 6HR MAX TEMP:  80; 6HR PCP:  0.38;


$$
MOZ066>068-077>081-088>096-101>105-290100-
...SOUTHWEST MISSOURI...

CITY           SKY/WX    TMP DP  RH WIND       PRES   REMARKS
SPRINGFIELD    CLOUDY    71  67  87 NE7       30.00F
6HR MIN TEMP:  68; 6HR MAX TEMP:  79; 6HR PCP:  0.23;

JOPLIN         MOSUNNY   76  64  66 S8        29.97F
6HR MIN TEMP:  65; 6HR MAX TEMP:  77; 6HR PCP:  0.10;


$$
MOZ032>034-039>042-045>050-055>058-069>072-290100-
...CENTRAL MISSOURI...

CITY           SKY/WX    TMP DP  RH WIND       PRES   REMARKS
COLUMBIA       CLOUDY    72  64  76 N7        30.04F
6HR MIN TEMP:  68; 6HR MAX TEMP:  77; 6HR PCP:  0.22;

JEFFERSON CITY CLOUDY    71  67  87 N6        30.02F
6HR MIN TEMP:  71; 6HR MAX TEMP:  79; 6HR PCP:  0.08;

ROLLA          PTSUNNY   74  64  71 SE6       30.02F
6HR MIN TEMP:  74; 6HR MAX TEMP:  81;

SEDALIA        CLOUDY    71  64  78 SE6       30.03F
6HR MIN TEMP:  69; 6HR MAX TEMP:  82; 6HR PCP:  0.03;

WHITEMAN AFB   PTSUNNY   68  66  94 SE5       30.00S
WARRENSBURG    CLOUDY    68  64  88 SE3       30.00S
OSAGE BEACH    CLOUDY    64  63  94 CALM      30.03F

$$
MOZ051-052-059>065-290100-
...EAST CENTRAL MISSOURI...

CITY           SKY/WX    TMP DP  RH WIND       PRES   REMARKS
ST LOUIS INTL  PTSUNNY   82  65  56 S10       30.04S
6HR MIN TEMP:  73; 6HR MAX TEMP:  86; 6HR PCP: TRACE;

SPIRIT OF STL  MOSUNNY  N/A N/A N/A SE3       30.03S
                                      6HR PCP:  0.28;

ST CHARLES     PTSUNNY   76  69  79 N5        30.03S
6HR MIN TEMP:  68; 6HR MAX TEMP:  85; 6HR PCP:  0.11;


$$
MOZ072>076-082>087-097>100-106>115-290100-
...SOUTH CENTRAL AND SOUTHEAST MISSOURI...

CITY           SKY/WX    TMP DP  RH WIND       PRES   REMARKS
CAPE GIRARDEAU MOSUNNY   78  66  66 S8        30.07F
6HR MIN TEMP:  78; 6HR MAX TEMP:  82;

FARMINGTON     MOSUNNY   75  64  69 SE9       30.11S
6HR MIN TEMP:  75; 6HR MAX TEMP:  81;

POPLAR BLUFF   MOSUNNY   76  67  73 SE6       30.05F
6HR MIN TEMP:  76; 6HR MAX TEMP:  80;

WEST PLAINS    CLOUDY    74  65  73 SE8G16    30.04F
6HR MIN TEMP:  74; 6HR MAX TEMP:  78;


$$



USA.gov is the U.S. government's official web portal to all federal, state and local government web resources and services.